Regional Weather Roundup
Issued by NWS

Home | Current Version | Previous Version | Graphics & Text | Print | Product List | Glossary Off
Versions: 1 2 3 4 5 6 7 8 9 10 11 12 13 14 15 16 17 18 19 20 21 22 23 24 25 26 27 28 29 30 31 32 33 34 35 36 37 38 39 40 41 42 43 44 45 46 47 48 49 50

000
ASUS43 KDMX 271906
RWRIA

WEATHER ROUNDUP FOR IOWA
NATIONAL WEATHER SERVICE DES MOINES IA
100 PM CST MON FEB 27 2017

NOTE: "FAIR" INDICATES FEW OR NO CLOUDS BELOW 12,000 FEET WITH NO
SIGNIFICANT WEATHER AND/OR OBSTRUCTIONS TO VISIBILITY.

* - THESE STATIONS ARE NOT NWS STATIONS...THUS NOT UNDER NWS
QUALITY CONTROL.  THEY ALSO DO NOT REPORT WEATHER SUCH
AS PRECIPITATION OR FOG.

IAZ001>003-012>014-020>022-031>034-043>046-272000-
   NORTHWEST IOWA

CITY           SKY/WX    TMP DP  RH WIND       PRES   REMARKS
CARROLL *      SUNNY     45  37  76 SE6       29.94F
CHEROKEE *     SUNNY     39  27  63 S8        29.91F WCI  33
DENISON *      MOSUNNY   43  32  65 S10       29.90F
LE MARS *      CLOUDY    41  27  56 S10       29.89F
SHELDON *      CLOUDY    39  30  70 S16G22    29.86F WCI  30
SIOUX CITY     SUNNY     38  28  67 SE10      29.89F WCI  31
SPENCER        CLOUDY    37  27  67 S10       29.91F WCI  30
STORM LAKE *   SUNNY     36  28  75 S14       29.92F WCI  27
$$

IAZ055>058-069>071-079>083-090>094-272000-
   SOUTHWEST IOWA

CITY           SKY/WX    TMP DP  RH WIND       PRES   REMARKS
ATLANTIC *     CLOUDY    50  30  46 S14       29.93F
AUDUBON *      CLOUDY    48  34  57 S9        29.93F
CLARINDA *     CLOUDY    52  28  40 S14       29.96F
COUNCIL BLFS * CLOUDY    48  32  53 S13G20    29.91F
CRESTON *      CLOUDY    52  27  37 S15       29.96F
HARLAN  *      SUNNY     46  32  57 S10G17    29.95F
LAMONI         MOSUNNY   52  28  39 SE12      29.96F
RED OAK *      CLOUDY    52  25  35 S15       29.93F
SHENANDOAH *   CLOUDY    52  30  43 SE13      29.93F
$$

IAZ047>049-059>061-072>074-084-272000-
   CENTRAL IOWA

CITY           SKY/WX    TMP DP  RH WIND       PRES   REMARKS
AMES           SUNNY     50  30  46 S13G18    29.98F
ANKENY *       SUNNY     52  28  40 S12       29.99F
BOONE *        SUNNY     46  34  61 SE12      29.96F
CHARITON *     SUNNY     54  28  37 S14G21    29.98F
DES MOINES     CLOUDY    54  29  38 S13       29.98F
GRINNELL*      SUNNY     51  34  52 S12       30.01F
KNOXVILLE *    PTSUNNY   54  28  37 S13       29.98F
MARSHALLTOWN   SUNNY     49  32  52 S10       29.98F
NEWTON *       SUNNY     52  32  46 S13G21    29.99F
PELLA *        SUNNY     53  31  42 S10       30.01F
PERRY *          N/A     47  31  52 S12       29.96F
$$

IAZ004>006-015-016-023>025-035-036-272000-
   NORTH CENTRAL IOWA

CITY           SKY/WX    TMP DP  RH WIND       PRES   REMARKS
ALGONA *       SUNNY     37  27  65 S14       29.94F WCI  29
CLARION *      SUNNY     37  32  81 SE10      29.96F WCI  30
ESTHERVILLE    PTSUNNY   34  27  75 S15       29.90F WCI  24
FORT DODGE *   SUNNY     43  25  49 S7        29.97F
MASON CITY     SUNNY     34  27  75 SE10      29.99F WCI  26
FOREST CITY *    N/A     36  30  80 SE10      29.96F WCI  28
WEBSTER CITY * SUNNY     39  32  75 SE8       29.94F WCI  34
IOWA FALLS *     N/A     46  35  65 SE7       29.99F
$$

IAZ007>011-017>019-026>030-037>042-050>054-066-272000-
   NORTHEAST IOWA

CITY           SKY/WX    TMP DP  RH WIND       PRES   REMARKS
CEDAR RAPIDS   SUNNY     51  33  50 S14G22    30.02F
CHARLES CITY * SUNNY     39  34  81 S9        30.01F WCI  33
CLINTON *      MOSUNNY   52  35  52 S8G17     30.08F
DECORAH *      SUNNY     43  32  65 S8        30.00F
DUBUQUE        MOSUNNY   46  36  68 S16       30.05F
MONTICELLO *   MOSUNNY   50  36  57 S16       30.04F
OELWEIN *      MOSUNNY   45  37  76 S12G17    30.02F
WATERLOO       SUNNY     47  35  63 S8        30.01F
$$

IAZ064-065-067-068-078-272000-
   EAST CENTRAL IOWA

CITY           SKY/WX    TMP DP  RH WIND       PRES   REMARKS
DAVENPORT      SUNNY     51  34  52 S9        30.07F
IOWA CITY      SUNNY     53  33  46 SE9       30.05F
MUSCATINE *    MOSUNNY   54  36  50 S15       30.06F
QUAD CITIES    SUNNY     53  34  48 S12       30.06F
$$

IAZ062-063-075>077-085>089-095>099-272000-
   SOUTHEAST IOWA

CITY           SKY/WX    TMP DP  RH WIND       PRES   REMARKS
BURLINGTON     SUNNY     55  34  45 S9G17     30.05F
FAIRFIELD *    SUNNY     54  27  35 S15G21    30.02F
FORT MADISON * SUNNY     57  37  47 S8        30.05F
KEOKUK *       SUNNY     55  30  38 S14       30.04F
CENTERVILLE *    N/A     55  27  33 SE13G18   30.01F
OTTUMWA        SUNNY     54  29  38 S15G26    30.01F
WASHINGTON *   SUNNY     54  32  43 S14G20    30.04F
$$

ABBREVIATIONS USED IN REMARKS
   TC - TEMPERATURES IN CELSIUS
  WCI - WIND CHILL INDEX
   HX - HEAT INDEX
  VSB - VISIBILITY
$$




USA.gov is the U.S. government's official web portal to all federal, state and local government web resources and services.